Dades meteomassalio
Diari Summary for Diciembre 27, 2017 Units:  Metric    English   Both
« Previous Day
Next Day »
Diari Semanal Mensual Anual Personalitzat
  Maxima: Minima: Mijana:
Temperatura: -17.8 °C -16.2 °C -13.8 °C
Rosada: -17.8 °C -18 °C -16.8 °C
Humitat: Humidity % 46 % 70 %
Velocitat del vent: 0 km/h 0 km/h 44.7 km/h
Racha vent: 0 km/h - -
Vent:- - WNW
Pressio: 0 hPa 33971.7 hPa -
Pluja: 83.82 mm    
Historical Graphs
 
 
Tabular Data for Diciembre 27, 2017
Time Temperature Dew Point Pressure Wind Wind Speed Wind Gust Humidity Rainfall Rate (Hourly) solar Conditions
-17.8 °C -17.8 °C 0 hPa Calm     Humidity % 0 mm SolarRadiationWatts/m^2 W/m2 Conditions
00:03 -16.2 °C -17.9 °C 34198.6 hPa Calm     81 % 0 mm 0.0 W/m2 RA
00:05 -16.2 °C -17.8 °C 34198.6 hPa Calm     82 % 0 mm 0.0 W/m2 CLR
00:10 -16.2 °C -17.8 °C 34198.6 hPa Calm     82 % 0 mm 0.0 W/m2 CLR
00:11 -16.2 °C -17.8 °C 34198.6 hPa Calm     82 % 0 mm 0.0 W/m2 CLR
00:16 -15.9 °C -17.4 °C 34198.6 hPa Calm     82 % 0 mm 0.0 W/m2 CLR
00:17 -15.9 °C -17.4 °C 34198.6 hPa Calm     82 % 0 mm 0.0 W/m2 CLR
00:22 -15.9 °C -17.4 °C 34188.4 hPa Calm     83 % 0 mm 0.0 W/m2 CLR
00:23 -15.9 °C -17.4 °C 34188.4 hPa Calm     83 % 0 mm 0.0 W/m2 CLR
00:26 -15.9 °C -17.4 °C 34188.4 hPa Calm     83 % 0 mm 0.0 W/m2 RA
00:29 -15.9 °C -17.4 °C 34188.4 hPa Calm     83 % 0 mm 0.0 W/m2 RA
00:34 -15.9 °C -17.4 °C 34178.3 hPa Calm     83 % 7.62 mm 0.0 W/m2 RA
00:35 -15.9 °C -17.4 °C 34178.3 hPa Calm     83 % 7.62 mm 0.0 W/m2 RA
00:40 -15.9 °C -17.3 °C 34178.3 hPa Calm     84 % 12.7 mm 0.0 W/m2 RA
00:41 -15.9 °C -17.3 °C 34178.3 hPa Calm     84 % 12.7 mm 0.0 W/m2 RA
00:46 -15.9 °C -17.2 °C 34164.7 hPa Calm     85 % 12.7 mm 0.0 W/m2 RA
00:47 -15.9 °C -17.2 °C 34154.6 hPa Calm     85 % 12.7 mm 0.0 W/m2 RA
00:48 -15.9 °C -17.2 °C 34154.6 hPa Calm     85 % 12.7 mm 0.0 W/m2 RA
00:53 -15.9 °C -17.1 °C 34154.6 hPa Calm     86 % 20.32 mm 0.0 W/m2 RA
00:54 -15.9 °C -17.1 °C 34154.6 hPa Calm     86 % 20.32 mm 0.0 W/m2 RA
00:55 -15.9 °C -17.1 °C 34144.4 hPa Calm     86 % 20.32 mm 0.0 W/m2 RA
01:00 -15.9 °C -17.1 °C 34144.4 hPa Calm     86 % 25.4 mm 0.0 W/m2 RA
01:05 -15.9 °C -16.9 °C 34130.9 hPa Calm     88 % 33.02 mm 0.0 W/m2
01:06 -15.9 °C -16.9 °C 34130.9 hPa Calm     88 % 33.02 mm 0.0 W/m2 CLR
01:07 -15.9 °C -16.9 °C 34120.7 hPa Calm     88 % 33.02 mm 0.0 W/m2 CLR
01:11 -15.9 °C -16.8 °C 34120.7 hPa Calm     89 % 33.02 mm 0.0 W/m2 CLR
01:16 -15.9 °C -16.8 °C 34107.2 hPa Calm     89 % 33.02 mm 0.0 W/m2 CLR
01:18 -15.9 °C -16.9 °C 34107.2 hPa Calm     88 % 33.02 mm 0.0 W/m2 CLR
01:23 -15.9 °C -16.9 °C 34107.2 hPa Calm     88 % 33.02 mm 0.0 W/m2 CLR
01:28 -15.9 °C -16.9 °C 34097 hPa Calm     88 % 25.4 mm 0.0 W/m2 CLR
01:29 -15.9 °C -16.9 °C 34107.2 hPa Calm     88 % 25.4 mm 0.0 W/m2 CLR
01:34 -15.9 °C -16.9 °C 34086.9 hPa Calm     88 % 20.32 mm 0.0 W/m2 CLR
01:35 -15.9 °C -16.9 °C 34086.9 hPa Calm     88 % 20.32 mm 0.0 W/m2 CLR
01:40 -15.9 °C -16.9 °C 34073.3 hPa Calm     88 % 12.7 mm 0.0 W/m2 CLR
01:45 -15.9 °C -16.8 °C 34063.2 hPa Calm     89 % 12.7 mm 0.0 W/m2 CLR
01:47 -15.9 °C -16.8 °C 34063.2 hPa Calm     89 % 12.7 mm 0.0 W/m2 CLR
01:51 -15.9 °C -16.8 °C 34063.2 hPa Calm     89 % 12.7 mm 0.0 W/m2 CLR
01:53 -16.2 °C -17.1 °C 34049.6 hPa Calm     89 % 7.62 mm 0.0 W/m2 CLR
01:58 -16.2 °C -17.1 °C 34049.6 hPa Calm     90 % 7.62 mm 0.0 W/m2 CLR
02:00 -15.9 °C -16.8 °C 34049.6 hPa Calm     90 % 0 mm 0.0 W/m2 CLR
02:05 -15.9 °C -16.8 °C 34049.6 hPa Calm     90 % 0 mm 0.0 W/m2 CLR
02:06 -15.9 °C -16.8 °C 34049.6 hPa Calm     90 % 0 mm 0.0 W/m2 CLR
02:08 -15.9 °C -16.8 °C 34049.6 hPa Calm     90 % 0 mm 0.0 W/m2 CLR
02:13 -15.9 °C -16.8 °C 34039.5 hPa Calm     90 % 0 mm 0.0 W/m2 CLR
02:14 -15.9 °C -16.8 °C 34039.5 hPa Calm     90 % 0 mm 0.0 W/m2 CLR
02:19 -15.9 °C -16.8 °C 34039.5 hPa Calm     90 % 0 mm 0.0 W/m2 CLR
02:24 -15.9 °C -16.8 °C 34039.5 hPa Calm     90 % 0 mm 0.0 W/m2 CLR
02:26 -15.9 °C -16.8 °C 34029.3 hPa Calm     90 % 0 mm 0.0 W/m2 CLR
02:31 -15.9 °C -16.8 °C 34029.3 hPa Calm     90 % 0 mm 0.0 W/m2 CLR
02:32 -15.9 °C -16.8 °C 34029.3 hPa Calm     90 % 0 mm 0.0 W/m2 CLR
02:37 -15.9 °C -16.7 °C 34039.5 hPa Calm     91 % 0 mm 0.0 W/m2 CLR
02:39 -15.9 °C -16.7 °C 34029.3 hPa Calm     91 % 0 mm 0.0 W/m2 CLR
02:43 -15.9 °C -16.8 °C 34039.5 hPa Calm     90 % 0 mm 0.0 W/m2 CLR
02:48 -15.9 °C -16.8 °C 34029.3 hPa Calm     90 % 0 mm 0.0 W/m2 CLR
02:49 -15.9 °C -16.7 °C 34029.3 hPa Calm     91 % 0 mm 0.0 W/m2 CLR
02:54 -15.9 °C -16.7 °C 34029.3 hPa Calm     91 % 0 mm 0.0 W/m2 CLR
02:57 -15.9 °C -16.7 °C 34029.3 hPa Calm     91 % 0 mm 0.0 W/m2 CLR
03:00 -15.9 °C -16.7 °C 34029.3 hPa Calm     91 % 0 mm 0.0 W/m2 CLR
03:04 -15.9 °C -16.7 °C 34029.3 hPa Calm     91 % 0 mm 0.0 W/m2 CLR
03:06 -15.9 °C -16.7 °C 34029.3 hPa Calm     91 % 0 mm 0.0 W/m2 CLR
03:09 -15.9 °C -16.7 °C 34029.3 hPa Calm     91 % 0 mm 0.0 W/m2 CLR
03:13 -15.9 °C -16.7 °C 34029.3 hPa Calm     91 % 0 mm 0.0 W/m2 CLR
03:15 -15.6 °C -16.3 °C 34029.3 hPa Calm     91 % 0 mm 0.0 W/m2 CLR
03:18 -15.6 °C -16.3 °C 34029.3 hPa Calm     91 % 0 mm 0.0 W/m2 CLR
03:23 -15.6 °C -16.3 °C 34029.3 hPa Calm     91 % 0 mm 0.0 W/m2 CLR
03:24 -15.6 °C -16.3 °C 34015.8 hPa Calm     91 % 0 mm 0.0 W/m2 CLR
03:29 -15.6 °C -16.3 °C 34029.3 hPa Calm     91 % 0 mm 0.0 W/m2 CLR
03:30 -15.6 °C -16.3 °C 34029.3 hPa Calm     91 % 0 mm 0.0 W/m2 CLR
03:34 -15.6 °C -16.3 °C 34029.3 hPa Calm     91 % 0 mm 0.0 W/m2 CLR
03:39 -15.6 °C -16.3 °C 34005.6 hPa Calm     92 % 0 mm 0.0 W/m2 CLR
03:40 -15.6 °C -16.3 °C 34005.6 hPa Calm     92 % 0 mm 0.0 W/m2 CLR
03:42 -15.6 °C -16.3 °C 34005.6 hPa Calm     92 % 0 mm 0.0 W/m2 CLR
03:45 -15.6 °C -16.3 °C 33992.1 hPa Calm     91 % 0 mm 0.0 W/m2 CLR
03:49 -15.6 °C -16.3 °C 33992.1 hPa Calm     91 % 0 mm 0.0 W/m2 CLR
03:50 -15.6 °C -16.3 °C 33992.1 hPa Calm     91 % 0 mm 0.0 W/m2 CLR
03:55 -15.6 °C -16.3 °C 33981.9 hPa Calm     91 % 0 mm 0.0 W/m2 CLR
03:57 -15.6 °C -16.3 °C 33981.9 hPa Calm     91 % 0 mm 0.0 W/m2 CLR
04:00 -15.6 °C -16.3 °C 33981.9 hPa Calm     91 % 0 mm 0.0 W/m2 CLR
04:04 -15.6 °C -16.3 °C 33981.9 hPa West 3.1 km/h 3.1 km/h 91 % 0 mm 0.0 W/m2 CLR
04:05 -15.6 °C -16.3 °C 33981.9 hPa West 15 km/h 15 km/h 91 % 0 mm 0.0 W/m2 CLR
04:09 -15.6 °C -16.3 °C 33971.7 hPa West 23.3 km/h 23.3 km/h 92 % 0 mm 0.0 W/m2 CLR
04:20 -15.3 °C -15.9 °C 33981.9 hPa NW 15.6 km/h 15.6 km/h 92 % 7.62 mm 0.0 W/m2
04:22 -15.3 °C -15.9 °C 33981.9 hPa WNW 15 km/h 15 km/h 92 % 7.62 mm 0.0 W/m2 CLR
04:27 -15.3 °C -16.1 °C 33981.9 hPa WNW 15 km/h 15 km/h 91 % 12.7 mm 0.0 W/m2
04:28 -15.3 °C -16.1 °C 33981.9 hPa West 11.9 km/h 11.9 km/h 91 % 12.7 mm 0.0 W/m2
04:29 -15.3 °C -16.2 °C 33981.9 hPa West 17.9 km/h 17.9 km/h 90 % 12.7 mm 0.0 W/m2 CLR
04:33 -15.3 °C -16.2 °C 33981.9 hPa SSW 6 km/h   89 % 12.7 mm 0.0 W/m2 RA
04:38 -15.3 °C -16.3 °C 33981.9 hPa Calm     88 % 20.32 mm 0.0 W/m2 RA
04:41 -15.3 °C -16.3 °C 33981.9 hPa Calm     88 % 25.4 mm 0.0 W/m2 RA
04:44 -15.3 °C -16.2 °C 33981.9 hPa Calm     89 % 33.02 mm 0.0 W/m2 RA
04:47 -15.3 °C -16.2 °C 33981.9 hPa WNW 31.1 km/h 31.1 km/h 89 % 38.1 mm 0.0 W/m2 RA
04:51 -15.3 °C -16.2 °C 33992.1 hPa North 11.9 km/h 11.9 km/h 89 % 38.1 mm 0.0 W/m2 RA
04:54 -15.3 °C -16.2 °C 33992.1 hPa North 26.9 km/h 26.9 km/h 89 % 38.1 mm 0.0 W/m2 RA
04:57 -15 °C -15.9 °C 33992.1 hPa North 31.1 km/h 31.1 km/h 89 % 45.72 mm 0.0 W/m2 RA
05:02 -15 °C -15.9 °C 34005.6 hPa NNW 15 km/h 15 km/h 89 % 45.72 mm 0.0 W/m2
05:04 -15 °C -16 °C 34005.6 hPa NNW 29.8 km/h 29.8 km/h 88 % 45.72 mm 0.0 W/m2 CLR
05:09 -14.4 °C -15.4 °C 34005.6 hPa NW 47.6 km/h 47.6 km/h 88 % 45.72 mm 0.0 W/m2 CLR
05:10 -14.4 °C -15.4 °C 34005.6 hPa NW 47.6 km/h 47.6 km/h 88 % 45.72 mm 0.0 W/m2 CLR
05:15 -13.8 °C -14.9 °C 34005.6 hPa NW 41.7 km/h 41.7 km/h 86 % 38.1 mm 0.0 W/m2 CLR
05:16 -13.4 °C -14.7 °C 34005.6 hPa North 44.1 km/h 44.1 km/h 86 % 38.1 mm 0.0 W/m2 CLR
05:21 -13.2 °C -14.6 °C 34015.8 hPa NW 77.4 km/h 77.4 km/h 84 % 38.1 mm 0.0 W/m2 CLR
05:25 -13.2 °C -14.6 °C 34015.8 hPa North 47.6 km/h 47.6 km/h 84 % 38.1 mm 0.0 W/m2 CLR
05:27 -13.2 °C -14.6 °C 34015.8 hPa North 71.5 km/h 71.5 km/h 84 % 38.1 mm 0.0 W/m2 CLR
05:32 -13.2 °C -14.6 °C 34005.6 hPa NW 50.7 km/h 50.7 km/h 84 % 33.02 mm 0.0 W/m2 CLR
05:37 -13.4 °C -14.9 °C 34015.8 hPa NW 47.6 km/h 47.6 km/h 84 % 25.4 mm 0.0 W/m2 CLR
05:42 -13.4 °C -14.8 °C 34015.8 hPa North 57 km/h 57 km/h 85 % 20.32 mm 0.0 W/m2 CLR
05:43 -13.4 °C -14.8 °C 34015.8 hPa NNW 59.5 km/h 59.5 km/h 85 % 20.32 mm 0.0 W/m2 CLR
05:48 -13.4 °C -14.8 °C 34015.8 hPa NW 50.7 km/h 50.7 km/h 85 % 12.7 mm 0.0 W/m2 CLR
05:49 -13.4 °C -14.8 °C 34015.8 hPa NNW 50.7 km/h 50.7 km/h 85 % 12.7 mm 0.0 W/m2 CLR
05:50 -13.4 °C -14.8 °C 34015.8 hPa NW 41.7 km/h 41.7 km/h 85 % 12.7 mm 0.0 W/m2 CLR
05:54 -13.8 °C -15.1 °C 34015.8 hPa NW 44.1 km/h 44.1 km/h 85 % 7.62 mm 0.0 W/m2 CLR
05:57 -13.8 °C -14.9 °C 34015.8 hPa NNW 50.7 km/h 50.7 km/h 86 % 0 mm 0.0 W/m2 CLR
06:00 -13.8 °C -14.9 °C 34015.8 hPa NNW 47.6 km/h 47.6 km/h 86 % 0 mm 0.0 W/m2 CLR
06:03 -13.8 °C -14.9 °C 34015.8 hPa NW 33.6 km/h 33.6 km/h 86 % 0 mm 0.0 W/m2 CLR
06:08 -14.1 °C -15.3 °C 34015.8 hPa NW 29.8 km/h 29.8 km/h 86 % 0 mm 0.0 W/m2 CLR
06:09 -14.1 °C -15.3 °C 34015.8 hPa WNW 35.7 km/h 35.7 km/h 86 % 0 mm 0.0 W/m2 CLR
06:15 -14.1 °C -15.3 °C 34015.8 hPa NNW 35.7 km/h 35.7 km/h 86 % 0 mm 0.0 W/m2 CLR
06:16 -14.1 °C -15.3 °C 34015.8 hPa NW 29.8 km/h 29.8 km/h 86 % 0 mm 0.0 W/m2 CLR
06:21 -14.4 °C -15.6 °C 34015.8 hPa NW 31.1 km/h 31.1 km/h 86 % 0 mm 0.0 W/m2 CLR
06:26 -14.4 °C -15.5 °C 34015.8 hPa NW 29.8 km/h 29.8 km/h 87 % 0 mm 0.0 W/m2 CLR
06:31 -14.4 °C -15.5 °C 34015.8 hPa NW 29.8 km/h 29.8 km/h 87 % 0 mm 0.0 W/m2 CLR
06:35 -14.4 °C -15.5 °C 34015.8 hPa NW 41.7 km/h 41.7 km/h 87 % 0 mm 0.0 W/m2 CLR
06:37 -14.4 °C -15.5 °C 34015.8 hPa NNW 41.7 km/h 41.7 km/h 87 % 0 mm 0.0 W/m2 CLR
06:41 -14.4 °C -15.5 °C 34015.8 hPa NW 36.2 km/h 36.2 km/h 87 % 0 mm 0.0 W/m2 CLR
06:42 -14.4 °C -15.5 °C 34015.8 hPa NW 35.7 km/h 35.7 km/h 87 % 0 mm 0.0 W/m2 CLR
06:47 -14.4 °C -15.5 °C 34015.8 hPa NW 35.7 km/h 35.7 km/h 87 % 0 mm 0.0 W/m2 CLR
06:48 -14.4 °C -15.5 °C 34015.8 hPa NNW 32.8 km/h 32.8 km/h 87 % 0 mm 0.0 W/m2 CLR
06:50 -14.4 °C -15.5 °C 34015.8 hPa NW 29.8 km/h 29.8 km/h 87 % 0 mm 0.0 W/m2 CLR
06:55 -14.4 °C -15.4 °C 34015.8 hPa NW 26.9 km/h 26.9 km/h 88 % 0 mm 0.0 W/m2 CLR
06:56 -14.4 °C -15.4 °C 34015.8 hPa NW 32.8 km/h 32.8 km/h 88 % 0 mm 0.0 W/m2 CLR
07:01 -14.7 °C -15.7 °C 34015.8 hPa NW 29.8 km/h 29.8 km/h 88 % 0 mm 0.0 W/m2 CLR
07:02 -14.7 °C -15.7 °C 34015.8 hPa NW 29.8 km/h 29.8 km/h 88 % 0 mm 0.0 W/m2 CLR
07:03 -14.7 °C -15.7 °C 34015.8 hPa NW 26.9 km/h 26.9 km/h 88 % 0 mm 0.0 W/m2 CLR
07:07 -14.7 °C -15.7 °C 34015.8 hPa NW 26.9 km/h 26.9 km/h 88 % 0 mm 0.0 W/m2 CLR
07:12 -15 °C -16 °C 34015.8 hPa NW 20.9 km/h 20.9 km/h 88 % 0 mm 0.0 W/m2 CLR
07:13 -15 °C -16 °C 34029.3 hPa NW 23.8 km/h 23.8 km/h 88 % 0 mm 0.0 W/m2 CLR
07:18 -15 °C -16 °C 34029.3 hPa NW 20.9 km/h 20.9 km/h 88 % 0 mm 0.0 W/m2 CLR
07:19 -15 °C -16 °C 34029.3 hPa WNW 20.9 km/h 20.9 km/h 88 % 0 mm 0.0 W/m2 CLR
07:24 -15 °C -16 °C 34029.3 hPa WNW 18.2 km/h 18.2 km/h 88 % 0 mm 0.0 W/m2 CLR
07:25 -15 °C -16 °C 34029.3 hPa WNW 20.9 km/h 20.9 km/h 88 % 0 mm 0.0 W/m2 CLR
07:30 -15.3 °C -16.3 °C 34039.5 hPa WNW 9 km/h 9 km/h 88 % 0 mm 0.0 W/m2 CLR
07:31 -15.3 °C -16.3 °C 34039.5 hPa WNW 10.3 km/h 10.3 km/h 88 % 0 mm 0.0 W/m2 CLR
07:36 -15.6 °C -16.6 °C 34039.5 hPa WNW 17.9 km/h 17.9 km/h 88 % 0 mm 0.0 W/m2 CLR
07:39 -15.6 °C -16.6 °C 34039.5 hPa West 11.9 km/h 11.9 km/h 89 % 0 mm 0.0 W/m2 CLR
07:42 -15.6 °C -16.6 °C 34039.5 hPa West 17.9 km/h 17.9 km/h 89 % 0 mm 0.0 W/m2 CLR
07:47 -15.6 °C -16.6 °C 34039.5 hPa West 11.9 km/h 11.9 km/h 89 % 0 mm 0.0 W/m2 CLR
07:52 -15.6 °C -16.6 °C 34039.5 hPa West 20.9 km/h 20.9 km/h 89 % 0 mm 0.0 W/m2 CLR
07:53 -15.6 °C -16.6 °C 34039.5 hPa West 17.9 km/h 17.9 km/h 89 % 0 mm 0.0 W/m2 CLR
07:58 -15.9 °C -16.8 °C 34039.5 hPa West 23.8 km/h 23.8 km/h 90 % 0 mm 0.0 W/m2 CLR
07:59 -15.9 °C -16.8 °C 34039.5 hPa West 26.9 km/h 26.9 km/h 90 % 0 mm 0.0 W/m2 CLR
08:02 -15.9 °C -16.8 °C 34039.5 hPa WNW 23.8 km/h 23.8 km/h 90 % 0 mm 0.0 W/m2 CLR
08:04 -15.9 °C -16.8 °C 34039.5 hPa WNW 35.7 km/h 35.7 km/h 89 % 0 mm 0.0 W/m2 CLR
08:09 -15.9 °C -16.8 °C 34039.5 hPa WNW 18.2 km/h 18.2 km/h 89 % 0 mm 0.0 W/m2 CLR
08:10 -15.9 °C -16.9 °C 34039.5 hPa WNW 33.6 km/h 33.6 km/h 88 % 0 mm 0.0 W/m2 CLR
08:15 -15.9 °C -17.2 °C 34039.5 hPa WNW 41.7 km/h 41.7 km/h 85 % 0 mm 0.0 W/m2 OVC
08:19 -15.9 °C -17.7 °C 34039.5 hPa WNW 38.8 km/h 38.8 km/h 79 % 0 mm 0.0 W/m2 OVC
08:21 -15.6 °C -17.6 °C 34039.5 hPa WNW 44.7 km/h 44.7 km/h 78 % 0 mm 0.0 W/m2 OVC
08:26 -15.6 °C -17.9 °C 34039.5 hPa WNW 47.6 km/h 47.6 km/h 75 % 0 mm 5.0 W/m2 OVC
08:31 -15.3 °C -17.8 °C 34039.5 hPa NW 50.7 km/h 50.7 km/h 73 % 0 mm 7.0 W/m2 BKN
08:32 -15 °C -17.6 °C 34039.5 hPa NW 50.7 km/h 50.7 km/h 72 % 0 mm 7.0 W/m2 BKN
08:37 -15 °C -17.7 °C 34049.6 hPa WNW 41.7 km/h 41.7 km/h 71 % 0 mm 11.0 W/m2 BKN
08:42 -15 °C -17.8 °C 34039.5 hPa WNW 50.7 km/h 50.7 km/h 70 % 0 mm 12.0 W/m2 BKN
08:43 -15 °C -17.8 °C 34049.6 hPa NW 35.7 km/h 35.7 km/h 70 % 0 mm 12.0 W/m2 BKN
08:44 -14.7 °C -17.5 °C 34049.6 hPa WNW 38.8 km/h 38.8 km/h 70 % 0 mm 14.0 W/m2 BKN
08:49 -15 °C -17.8 °C 34049.6 hPa WNW 44.7 km/h 44.7 km/h 70 % 0 mm 16.0 W/m2 BKN
08:50 -15 °C -17.9 °C 34049.6 hPa WNW 35.7 km/h 35.7 km/h 69 % 0 mm 16.0 W/m2 BKN
08:55 -14.7 °C -17.6 °C 34063.2 hPa NW 35.7 km/h 35.7 km/h 69 % 0 mm 16.0 W/m2 BKN
08:56 -14.7 °C -17.6 °C 34063.2 hPa WNW 33.6 km/h 33.6 km/h 69 % 0 mm 18.0 W/m2 BKN
09:01 -15 °C -17.9 °C 34063.2 hPa WNW 35.7 km/h 35.7 km/h 69 % 0 mm 21.0 W/m2 BKN
09:02 -15 °C -17.9 °C 34073.3 hPa WNW 38.8 km/h 38.8 km/h 69 % 0 mm 28.0 W/m2 BKN
09:05 -15 °C -17.9 °C 34073.3 hPa NW 36.2 km/h 36.2 km/h 69 % 0 mm 28.0 W/m2 BKN
09:08 -15 °C -18 °C 34073.3 hPa NW 50.7 km/h 50.7 km/h 68 % 0 mm 33.0 W/m2 BKN
09:13 -14.7 °C -17.7 °C 34073.3 hPa NW 35.7 km/h 35.7 km/h 68 % 0 mm 54.0 W/m2 SCT
09:16 -14.4 °C -17.4 °C 34073.3 hPa NW 35.7 km/h 35.7 km/h 68 % 0 mm 56.0 W/m2 SCT
09:19 -14.4 °C -17.6 °C 34073.3 hPa NW 44.7 km/h 44.7 km/h 67 % 0 mm 76.0 W/m2 FEW
09:24 -14.1 °C -17.3 °C 34086.9 hPa NW 59.5 km/h 59.5 km/h 66 % 0 mm 102.0 W/m2 FEW
09:25 -14.1 °C -17.3 °C 34086.9 hPa NW 59.5 km/h 59.5 km/h 66 % 0 mm 104.0 W/m2 FEW
09:28 -13.8 °C -17.1 °C 34086.9 hPa NW 44.7 km/h 44.7 km/h 66 % 0 mm 60.0 W/m2 CLR
09:31 -13.4 °C -16.9 °C 34086.9 hPa NW 56.6 km/h 56.6 km/h 65 % 0 mm 37.0 W/m2 FEW
09:36 -13.4 °C -16.9 °C 34086.9 hPa NW 50.7 km/h 50.7 km/h 65 % 0 mm 118.0 W/m2 FEW
09:37 -13.2 °C -16.6 °C 34086.9 hPa NW 50.7 km/h 50.7 km/h 65 % 0 mm 114.0 W/m2 FEW
09:42 -13.2 °C -16.6 °C 34086.9 hPa WNW 59.5 km/h 59.5 km/h 65 % 0 mm 128.0 W/m2 FEW
09:43 -13.2 °C -16.6 °C 34086.9 hPa WNW 67.3 km/h 67.3 km/h 65 % 0 mm 130.0 W/m2 FEW
09:48 -13.2 °C -16.6 °C 34097 hPa NW 62.6 km/h 62.6 km/h 65 % 0 mm 118.0 W/m2 CLR
09:53 -12.8 °C -16.4 °C 34107.2 hPa NW 59.5 km/h 59.5 km/h 64 % 0 mm 165.0 W/m2 CLR
09:58 -12.8 °C -16.6 °C 34107.2 hPa NNW 77.4 km/h 77.4 km/h 63 % 0 mm 207.0 W/m2 CLR
10:01 -12.8 °C -16.4 °C 34107.2 hPa NNW 49.2 km/h 49.2 km/h 64 % 0 mm 199.0 W/m2 CLR
10:04 -12.8 °C -16.6 °C 34107.2 hPa NW 59.5 km/h 59.5 km/h 63 % 0 mm 220.0 W/m2 CLR
10:08 -12.6 °C -16.3 °C 34107.2 hPa NW 67.3 km/h 67.3 km/h 63 % 0 mm 162.0 W/m2 CLR
10:11 -12.6 °C -16.4 °C 34120.7 hPa NW 68.6 km/h 68.6 km/h 62 % 0 mm 102.0 W/m2 CLR
10:16 -12.6 °C -16.4 °C 34120.7 hPa NW 68.6 km/h 68.6 km/h 62 % 0 mm 163.0 W/m2 CLR
10:18 -12.6 °C -16.4 °C 34120.7 hPa NNW 72.6 km/h 72.6 km/h 62 % 0 mm 128.0 W/m2 CLR
10:23 -12.6 °C -16.4 °C 34120.7 hPa NW 68.6 km/h 68.6 km/h 62 % 0 mm 100.0 W/m2 CLR
10:25 -12.6 °C -16.4 °C 34120.7 hPa NW 53.6 km/h 53.6 km/h 62 % 0 mm 100.0 W/m2 CLR
10:29 -12.6 °C -16.4 °C 34120.7 hPa NW 65.5 km/h 65.5 km/h 62 % 0 mm 98.0 W/m2 CLR
10:31 -12.6 °C -16.4 °C 34120.7 hPa NW 53.6 km/h 53.6 km/h 62 % 0 mm 100.0 W/m2 CLR
10:34 -12.6 °C -16.5 °C 34120.7 hPa NNW 80.5 km/h 80.5 km/h 61 % 0 mm 109.0 W/m2 CLR
10:38 -12.6 °C -16.6 °C 34120.7 hPa NW 71.5 km/h 71.5 km/h 60 % 0 mm 130.0 W/m2 CLR
10:39 -12.6 °C -16.6 °C 34120.7 hPa NW 74.5 km/h 74.5 km/h 60 % 0 mm 120.0 W/m2 CLR
10:44 -12.6 °C -16.5 °C 34120.7 hPa NNW 68.6 km/h 68.6 km/h 61 % 0 mm 125.0 W/m2 CLR
10:49 -12.6 °C -16.6 °C 34120.7 hPa NW 68.6 km/h 68.6 km/h 60 % 0 mm 295.0 W/m2 CLR
10:52 -12.2 °C -16.3 °C 34130.9 hPa NW 68.6 km/h 68.6 km/h 60 % 0 mm 301.0 W/m2 CLR
10:57 -12.2 °C -16.5 °C 34130.9 hPa NW 65.5 km/h 65.5 km/h 59 % 0 mm 364.0 W/m2 CLR
10:59 -11.9 °C -16.2 °C 34130.9 hPa NW 62.6 km/h 62.6 km/h 59 % 0 mm 417.0 W/m2 CLR
11:00 -11.9 °C -16.2 °C 34130.9 hPa NW 62.6 km/h 62.6 km/h 59 % 0 mm 417.0 W/m2 CLR
11:05 -11.9 °C -16.2 °C 34130.9 hPa NW 59.5 km/h 59.5 km/h 59 % 0 mm 223.0 W/m2 CLR
11:08 -11.6 °C -16 °C 34130.9 hPa NW 77.4 km/h 77.4 km/h 58 % 0 mm 251.0 W/m2 CLR
11:11 -11.6 °C -16 °C 34130.9 hPa NNW 74.5 km/h 74.5 km/h 58 % 0 mm 362.0 W/m2 CLR
11:15 -11.6 °C -16 °C 34130.9 hPa NNW 59.5 km/h 59.5 km/h 58 % 0 mm 490.0 W/m2 CLR
11:17 -11.6 °C -16.2 °C 34144.4 hPa NW 64.7 km/h 64.7 km/h 57 % 0 mm 512.0 W/m2 CLR
11:22 -11.6 °C -16.3 °C 34144.4 hPa NW 71.5 km/h 71.5 km/h 56 % 0 mm 230.0 W/m2 CLR
11:24 -11.6 °C -16.3 °C 34144.4 hPa NW 77.4 km/h 77.4 km/h 56 % 0 mm 186.0 W/m2 CLR
11:27 -11.6 °C -16.2 °C 34144.4 hPa NNW 59.5 km/h 59.5 km/h 57 % 0 mm 227.0 W/m2 CLR
11:29 -11.6 °C -16 °C 34144.4 hPa NW 53.6 km/h 53.6 km/h 58 % 0 mm 158.0 W/m2 CLR
11:34 -11.6 °C -16.2 °C 34144.4 hPa NNW 74.5 km/h 74.5 km/h 57 % 0 mm 179.0 W/m2 CLR
11:36 -11.6 °C -16.2 °C 34144.4 hPa NNW 80.5 km/h 80.5 km/h 57 % 0 mm 185.0 W/m2 CLR
11:39 -11.6 °C -16.3 °C 34154.6 hPa NNW 89.3 km/h 89.3 km/h 56 % 0 mm 162.0 W/m2 CLR
11:41 -11.6 °C -16.2 °C 34144.4 hPa NNW 68.6 km/h 68.6 km/h 57 % 0 mm 139.0 W/m2 CLR
11:46 -11.6 °C -16.2 °C 34144.4 hPa West 59.5 km/h 59.5 km/h 57 % 0 mm 448.0 W/m2 CLR
11:48 -11.6 °C -16.2 °C 34144.4 hPa NNW 69.8 km/h 69.8 km/h 57 % 0 mm 429.0 W/m2 CLR
11:49 -11.6 °C -16.2 °C 34154.6 hPa NW 71.5 km/h 71.5 km/h 57 % 0 mm 429.0 W/m2 CLR
11:54 -11.6 °C -16.3 °C 34144.4 hPa NW 69.8 km/h 69.8 km/h 56 % 0 mm 197.0 W/m2 CLR
11:55 -11.6 °C -16.3 °C 34144.4 hPa NNW 68.6 km/h 68.6 km/h 56 % 0 mm 197.0 W/m2 CLR
11:59 -11.6 °C -16.2 °C 34144.4 hPa NW 80.5 km/h 80.5 km/h 57 % 0 mm 171.0 W/m2 CLR
12:04 -11.6 °C -16.2 °C 34144.4 hPa NNW 68.6 km/h 68.6 km/h 57 % 0 mm 522.0 W/m2 CLR
12:05 -11.6 °C -16.2 °C 34144.4 hPa NNW 68.6 km/h 68.6 km/h 57 % 0 mm 504.0 W/m2 CLR
12:10 -11.3 °C -15.9 °C 34144.4 hPa NW 68.6 km/h 68.6 km/h 57 % 0 mm 221.0 W/m2 CLR
12:12 -11.3 °C -15.9 °C 34144.4 hPa NW 68.6 km/h 68.6 km/h 57 % 0 mm 531.0 W/m2 CLR
12:14 -11.3 °C -16 °C 34144.4 hPa NW 50.7 km/h 50.7 km/h 56 % 0 mm 230.0 W/m2 CLR
12:19 -11.3 °C -16.3 °C 34144.4 hPa NNW 65.5 km/h 65.5 km/h 54 % 0 mm 174.0 W/m2 CLR
12:20 -11.3 °C -16.2 °C 34144.4 hPa North 74.5 km/h 74.5 km/h 55 % 0 mm 162.0 W/m2 CLR
12:24 -11.3 °C -16.2 °C 34144.4 hPa NNW 77.4 km/h 77.4 km/h 55 % 0 mm 149.0 W/m2 CLR
12:29 -11.6 °C -16.2 °C 34144.4 hPa North 68.6 km/h 68.6 km/h 57 % 0 mm 207.0 W/m2 CLR
12:32 -11.6 °C -16.4 °C 34144.4 hPa NW 86.4 km/h 86.4 km/h 55 % 0 mm 232.0 W/m2 CLR
12:37 -11.6 °C -16.4 °C 34144.4 hPa North 71.5 km/h 71.5 km/h 55 % 7.62 mm 141.0 W/m2 RA
12:42 -11.6 °C -16.3 °C 34144.4 hPa NNW 77.4 km/h 77.4 km/h 56 % 7.62 mm 160.0 W/m2 CLR
12:43 -11.6 °C -16.3 °C 34144.4 hPa NW 77.4 km/h 77.4 km/h 56 % 7.62 mm 160.0 W/m2 CLR
12:48 -11.6 °C -16.4 °C 34144.4 hPa North 74.5 km/h 74.5 km/h 55 % 7.62 mm 257.0 W/m2 CLR
12:51 -11.3 °C -16.4 °C 34154.6 hPa North 101.2 km/h 101.2 km/h 53 % 7.62 mm 265.0 W/m2 CLR
12:56 -11.3 °C -16.4 °C 34154.6 hPa NNW 89.3 km/h 89.3 km/h 53 % 7.62 mm 171.0 W/m2 CLR
12:57 -11.3 °C -16.6 °C 34154.6 hPa North 104.3 km/h 104.3 km/h 52 % 7.62 mm 171.0 W/m2 CLR
13:02 -11.3 °C -16.3 °C 34144.4 hPa NW 59.5 km/h 59.5 km/h 54 % 7.62 mm 190.0 W/m2 CLR
13:03 -11.3 °C -16.3 °C 34144.4 hPa North 59.5 km/h 59.5 km/h 54 % 7.62 mm 190.0 W/m2 CLR
13:05 -11.3 °C -16.3 °C 34144.4 hPa NW 56.6 km/h 56.6 km/h 54 % 7.62 mm 185.0 W/m2 CLR
13:06 -11.3 °C -16.2 °C 34144.4 hPa North 71.5 km/h 71.5 km/h 55 % 7.62 mm 171.0 W/m2 CLR
13:11 -11.6 °C -16.4 °C 34154.6 hPa North 65.5 km/h 65.5 km/h 55 % 7.62 mm 151.0 W/m2 CLR
13:12 -11.6 °C -16.4 °C 34154.6 hPa NNW 68.6 km/h 68.6 km/h 55 % 7.62 mm 151.0 W/m2 CLR
13:14 -11.6 °C -16.7 °C 34154.6 hPa North 113.1 km/h 113.1 km/h 53 % 7.62 mm 142.0 W/m2 CLR
13:19 -11.6 °C -16.6 °C 34154.6 hPa North 86.4 km/h 86.4 km/h 54 % 7.62 mm 100.0 W/m2 CLR
13:23 -11.6 °C -16.4 °C 34154.6 hPa North 56.6 km/h 56.6 km/h 55 % 7.62 mm 490.0 W/m2 CLR
13:25 -11.6 °C -16.6 °C 34154.6 hPa NNW 86.4 km/h 86.4 km/h 54 % 7.62 mm 490.0 W/m2 CLR
13:30 -11.6 °C -16.6 °C 34154.6 hPa North 80.5 km/h 80.5 km/h 54 % 7.62 mm 81.0 W/m2 CLR
13:35 -11.9 °C -16.6 °C 34154.6 hPa NNW 65.5 km/h 65.5 km/h 56 % 7.62 mm 70.0 W/m2 FEW
13:36 -11.9 °C -16.6 °C 34154.6 hPa North 65.5 km/h 65.5 km/h 56 % 7.62 mm 93.0 W/m2 FEW
13:41 -11.9 °C -16.6 °C 34154.6 hPa North 74.5 km/h 74.5 km/h 56 % 0 mm 74.0 W/m2 CLR
13:46 -11.6 °C -16.7 °C 34164.7 hPa North 90.6 km/h 90.6 km/h 53 % 0 mm 341.0 W/m2 CLR
13:48 -11.6 °C -16.7 °C 34164.7 hPa NNW 75.2 km/h 75.2 km/h 53 % 0 mm 341.0 W/m2 CLR
13:49 -11.6 °C -16.9 °C 34164.7 hPa North 90.6 km/h 90.6 km/h 52 % 0 mm 341.0 W/m2 CLR
13:54 -11.6 °C -17.2 °C 34164.7 hPa North 108.8 km/h 108.8 km/h 50 % 0 mm 410.0 W/m2 CLR
13:55 -11.6 °C -17.2 °C 34164.7 hPa NNW 110.2 km/h 110.2 km/h 50 % 0 mm 406.0 W/m2 CLR
14:00 -11.6 °C -17.3 °C 34164.7 hPa NNW 104.3 km/h 104.3 km/h 49 % 0 mm 404.0 W/m2 CLR
14:01 -11.6 °C -17.3 °C 34164.7 hPa NNW 122.1 km/h 122.1 km/h 49 % 0 mm 411.0 W/m2 CLR
14:02 -11.6 °C -17.2 °C 34164.7 hPa NNW 107.2 km/h 107.2 km/h 50 % 0 mm 406.0 W/m2 CLR
14:07 -11.6 °C -17.2 °C 34164.7 hPa North 89.3 km/h 89.3 km/h 50 % 0 mm 394.0 W/m2 CLR
14:12 -11.6 °C -17.2 °C 34154.6 hPa North 110.2 km/h 110.2 km/h 50 % 0 mm 390.0 W/m2 CLR
14:14 -11.6 °C -17.3 °C 34164.7 hPa NNW 122.1 km/h 122.1 km/h 49 % 0 mm 388.0 W/m2 CLR
14:19 -11.6 °C -17.2 °C 34154.6 hPa North 89.3 km/h 89.3 km/h 50 % 0 mm 381.0 W/m2 CLR
14:24 -11.6 °C -17.2 °C 34154.6 hPa NNW 68.6 km/h 68.6 km/h 50 % 0 mm 376.0 W/m2 CLR
14:26 -11.6 °C -17.1 °C 34154.6 hPa North 65.5 km/h 65.5 km/h 51 % 0 mm 374.0 W/m2 CLR
14:31 -11.6 °C -17.3 °C 34164.7 hPa NNW 77.4 km/h 77.4 km/h 49 % 0 mm 364.0 W/m2 CLR
14:32 -11.6 °C -17.2 °C 34154.6 hPa North 71.5 km/h 71.5 km/h 50 % 0 mm 366.0 W/m2 CLR
14:34 -11.6 °C -17.3 °C 34154.6 hPa North 77.4 km/h 77.4 km/h 49 % 0 mm 366.0 W/m2 CLR
14:39 -11.6 °C -17.5 °C 34154.6 hPa North 113.1 km/h 113.1 km/h 48 % 0 mm 359.0 W/m2 CLR
14:40 -11.6 °C -17.5 °C 34154.6 hPa North 113.1 km/h 113.1 km/h 48 % 0 mm 359.0 W/m2 CLR
14:41 -11.6 °C -17.5 °C 34164.7 hPa North 98.3 km/h 98.3 km/h 48 % 0 mm 353.0 W/m2 CLR
14:46 -11.6 °C -17.5 °C 34154.6 hPa North 98.3 km/h 98.3 km/h 48 % 0 mm 360.0 W/m2 CLR
14:48 -11.6 °C -17.3 °C 34154.6 hPa North 89.3 km/h 89.3 km/h 49 % 0 mm 137.0 W/m2 CLR
14:51 -11.6 °C -17.3 °C 34164.7 hPa NNW 89.3 km/h 89.3 km/h 49 % 0 mm 232.0 W/m2 CLR
14:54 -11.6 °C -17.3 °C 34154.6 hPa NW 89.3 km/h 89.3 km/h 49 % 0 mm 232.0 W/m2 CLR
14:59 -11.6 °C -17.5 °C 34154.6 hPa North 74.5 km/h 74.5 km/h 48 % 0 mm 308.0 W/m2 CLR
15:01 -11.6 °C -17.7 °C 34154.6 hPa North 83.4 km/h 83.4 km/h 47 % 0 mm 76.0 W/m2 CLR
15:06 -11.6 °C -17.7 °C 34154.6 hPa North 104.3 km/h 104.3 km/h 47 % 0 mm 309.0 W/m2 CLR
15:07 -11.6 °C -17.5 °C 34154.6 hPa NNW 83.4 km/h 83.4 km/h 48 % 0 mm 308.0 W/m2 CLR
15:11 -11.6 °C -17.7 °C 34154.6 hPa North 95.3 km/h 95.3 km/h 47 % 0 mm 295.0 W/m2 CLR
15:12 -11.6 °C -17.8 °C 34154.6 hPa North 107.2 km/h 107.2 km/h 46 % 0 mm 290.0 W/m2 CLR
15:17 -11.6 °C -17.7 °C 34154.6 hPa North 56.6 km/h 61.3 km/h 47 % 0 mm 287.0 W/m2 CLR
15:18 -11.6 °C -17.7 °C 34154.6 hPa North 95.3 km/h 95.3 km/h 47 % 0 mm 288.0 W/m2 CLR
15:23 -11.6 °C -17.5 °C 34164.7 hPa North 68.6 km/h 68.6 km/h 48 % 0 mm 279.0 W/m2 CLR
15:24 -11.6 °C -17.5 °C 34164.7 hPa North 65.5 km/h 65.5 km/h 48 % 0 mm 264.0 W/m2 CLR
15:29 -11.9 °C -17.6 °C 34164.7 hPa NNE 71.5 km/h 71.5 km/h 49 % 0 mm 264.0 W/m2 CLR
15:31 -11.9 °C -17.6 °C 34178.3 hPa North 90.6 km/h 90.6 km/h 49 % 0 mm 262.0 W/m2 CLR
15:36 -11.9 °C -17.6 °C 34178.3 hPa North 83.4 km/h 83.4 km/h 49 % 0 mm 250.0 W/m2 CLR
15:41 -11.9 °C -17.6 °C 34178.3 hPa North 86.4 km/h 86.4 km/h 49 % 0 mm 244.0 W/m2 CLR
15:42 -11.9 °C -17.8 °C 34178.3 hPa North 86.4 km/h 86.4 km/h 48 % 0 mm 244.0 W/m2 CLR
15:47 -11.9 °C -17.6 °C 34178.3 hPa North 86.4 km/h 86.4 km/h 49 % 0 mm 225.0 W/m2 CLR
15:48 -11.9 °C -17.6 °C 34178.3 hPa North 86.4 km/h 86.4 km/h 49 % 0 mm 225.0 W/m2 CLR
15:50 -11.9 °C -17.4 °C 34178.3 hPa NNW 71.5 km/h 71.5 km/h 50 % 0 mm 211.0 W/m2 CLR
15:55 -11.9 °C -17.4 °C 34188.4 hPa NNW 56.6 km/h 56.6 km/h 50 % 0 mm 199.0 W/m2 CLR
16:00 -11.9 °C -17.6 °C 34188.4 hPa North 101.2 km/h 101.2 km/h 49 % 0 mm 211.0 W/m2 CLR
16:02 -11.9 °C -17.4 °C 34188.4 hPa North 74.5 km/h 74.5 km/h 50 % 0 mm 156.0 W/m2 CLR
16:04 -11.9 °C -17.4 °C 34188.4 hPa NNE 69.8 km/h 69.8 km/h 50 % 0 mm 253.0 W/m2 CLR
16:07 -11.9 °C -17.4 °C 34188.4 hPa North 71.5 km/h 71.5 km/h 50 % 0 mm 272.0 W/m2 CLR
16:10 -11.9 °C -17.4 °C 34188.4 hPa NNE 68.6 km/h 68.6 km/h 50 % 0 mm 278.0 W/m2 CLR
16:13 -11.9 °C -17.4 °C 34188.4 hPa North 64.7 km/h 64.7 km/h 50 % 0 mm 211.0 W/m2 CLR
16:18 -12.2 °C -17.6 °C 34188.4 hPa North 50.7 km/h 50.7 km/h 51 % 0 mm 172.0 W/m2 CLR
16:20 -12.2 °C -17.4 °C 34198.6 hPa North 77.4 km/h 77.4 km/h 52 % 0 mm 158.0 W/m2 CLR
16:25 -12.2 °C -17.3 °C 34198.6 hPa NNE 68.6 km/h 68.6 km/h 53 % 0 mm 63.0 W/m2 CLR
16:28 -12.2 °C -17.3 °C 34198.6 hPa North 68.6 km/h 68.6 km/h 53 % 0 mm 47.0 W/m2 FEW
16:31 -12.6 °C -17.4 °C 34188.4 hPa North 53.6 km/h 53.6 km/h 54 % 0 mm 42.0 W/m2 FEW
16:36 -12.6 °C -17.4 °C 34198.6 hPa NNW 59.5 km/h 59.5 km/h 54 % 0 mm 28.0 W/m2 BKN
16:37 -12.6 °C -17.4 °C 34198.6 hPa North 65.5 km/h 65.5 km/h 54 % 0 mm 28.0 W/m2 BKN
16:41 -12.6 °C -17.4 °C 34198.6 hPa North 75.2 km/h 75.2 km/h 54 % 0 mm 26.0 W/m2 BKN
16:42 -12.6 °C -17.3 °C 34198.6 hPa North 74.5 km/h 74.5 km/h 55 % 0 mm 26.0 W/m2 BKN
16:47 -12.6 °C -17.3 °C 34198.6 hPa North 74.5 km/h 74.5 km/h 55 % 0 mm 16.0 W/m2 BKN
16:48 -12.6 °C -17.3 °C 34198.6 hPa North 74.5 km/h 74.5 km/h 55 % 0 mm 16.0 W/m2 BKN
16:53 -12.6 °C -17.2 °C 34198.6 hPa NNE 56.6 km/h 56.6 km/h 56 % 0 mm 12.0 W/m2 BKN
16:58 -12.6 °C -17.1 °C 34212.1 hPa North 65.5 km/h 65.5 km/h 57 % 0 mm 16.0 W/m2 BKN
17:01 -12.6 °C -16.9 °C 34212.1 hPa NNE 65.5 km/h 65.5 km/h 58 % 0 mm 19.0 W/m2 BKN
17:06 -12.8 °C -17.2 °C 34212.1 hPa North 56.6 km/h 56.6 km/h 58 % 0 mm 25.0 W/m2 BKN
17:10 -12.8 °C -17.2 °C 34212.1 hPa NNE 62.1 km/h 62.1 km/h 58 % 0 mm 21.0 W/m2 BKN
17:15 -12.8 °C -17.2 °C 34212.1 hPa North 59.5 km/h 59.5 km/h 58 % 0 mm 11.0 W/m2 BKN
17:17 -12.8 °C -17.2 °C 34222.3 hPa North 56.6 km/h 56.6 km/h 58 % 0 mm 9.0 W/m2 BKN
17:22 -13.2 °C -17.3 °C 34222.3 hPa NNE 59.5 km/h 59.5 km/h 59 % 0 mm 7.0 W/m2 BKN
17:23 -13.2 °C -17.3 °C 34222.3 hPa NNE 59.5 km/h 59.5 km/h 59 % 0 mm 5.0 W/m2 BKN
17:28 -13.2 °C -17.2 °C 34222.3 hPa North 50.7 km/h 50.7 km/h 60 % 0 mm 5.0 W/m2 OVC
17:33 -13.2 °C -17.1 °C 34222.3 hPa North 50.7 km/h 50.7 km/h 61 % 0 mm 0.0 W/m2 OVC
17:36 -13.2 °C -17 °C 34235.8 hPa NNE 44.7 km/h 44.7 km/h 62 % 0 mm 0.0 W/m2 OVC
17:41 -13.2 °C -17 °C 34222.3 hPa North 44.7 km/h 44.7 km/h 62 % 0 mm 0.0 W/m2 OVC
17:43 -13.2 °C -17 °C 34222.3 hPa North 46.7 km/h 46.7 km/h 62 % 0 mm 0.0 W/m2 OVC
17:46 -13.4 °C -17.3 °C 34222.3 hPa North 80.5 km/h 80.5 km/h 62 % 0 mm 0.0 W/m2 OVC
17:48 -13.4 °C -17.3 °C 34222.3 hPa North 47.6 km/h 47.6 km/h 62 % 0 mm 0.0 W/m2 CLR
17:53 -13.4 °C -17.1 °C 34222.3 hPa NNE 62.1 km/h 62.1 km/h 63 % 0 mm 0.0 W/m2 CLR
17:58 -13.4 °C -17.1 °C 34235.8 hPa NNE 47.6 km/h 47.6 km/h 63 % 0 mm 0.0 W/m2 CLR
18:00 -13.4 °C -17 °C 34222.3 hPa North 41.7 km/h 41.7 km/h 64 % 0 mm 0.0 W/m2 CLR
18:02 -13.4 °C -17 °C 34235.8 hPa NNW 53.6 km/h 53.6 km/h 64 % 0 mm 0.0 W/m2 CLR
18:05 -13.4 °C -16.9 °C 34235.8 hPa NNW 50.7 km/h 50.7 km/h 65 % 0 mm 0.0 W/m2 CLR
18:10 -13.8 °C -17.2 °C 34246 hPa North 53.6 km/h 53.6 km/h 65 % 0 mm 0.0 W/m2 CLR
18:12 -13.8 °C -17.2 °C 34246 hPa North 41.7 km/h 41.7 km/h 65 % 0 mm 0.0 W/m2 CLR
18:17 -13.8 °C -17.2 °C 34246 hPa North 47.6 km/h 47.6 km/h 65 % 0 mm 0.0 W/m2 CLR
18:22 -13.8 °C -17.2 °C 34246 hPa NNW 47.6 km/h 47.6 km/h 65 % 0 mm 0.0 W/m2 CLR
18:23 -13.4 °C -16.9 °C 34256.2 hPa NNW 41.7 km/h 41.7 km/h 65 % 0 mm 0.0 W/m2 CLR
18:28 -13.4 °C -16.9 °C 34256.2 hPa North 38.8 km/h 38.8 km/h 65 % 0 mm 0.0 W/m2 CLR
18:30 -13.4 °C -16.9 °C 34256.2 hPa NNW 50.7 km/h 50.7 km/h 65 % 0 mm 0.0 W/m2 CLR
18:35 -13.4 °C -16.9 °C 34256.2 hPa North 41.7 km/h 41.7 km/h 65 % 0 mm 0.0 W/m2 CLR
18:36 -13.4 °C -16.9 °C 34256.2 hPa North 35.7 km/h 35.7 km/h 65 % 0 mm 0.0 W/m2 CLR
18:40 -13.4 °C -16.9 °C 34269.7 hPa North 50.7 km/h 50.7 km/h 65 % 0 mm 0.0 W/m2 CLR
18:41 -13.4 °C -16.9 °C 34269.7 hPa North 59.5 km/h 59.5 km/h 65 % 0 mm 0.0 W/m2 CLR
18:46 -13.4 °C -16.9 °C 34269.7 hPa NNW 50.7 km/h 50.7 km/h 65 % 0 mm 0.0 W/m2 CLR
18:47 -13.4 °C -16.9 °C 34269.7 hPa NNW 44.7 km/h 44.7 km/h 65 % 0 mm 0.0 W/m2 CLR
18:49 -13.4 °C -17 °C 34269.7 hPa NNW 38.8 km/h 38.8 km/h 64 % 0 mm 0.0 W/m2 CLR
18:52 -13.4 °C -17 °C 34269.7 hPa NNW 65.5 km/h 65.5 km/h 64 % 0 mm 0.0 W/m2 CLR
18:57 -13.4 °C -17.1 °C 34269.7 hPa North 65.5 km/h 65.5 km/h 63 % 0 mm 0.0 W/m2 CLR
18:58 -13.4 °C -17.1 °C 34269.7 hPa North 65.5 km/h 65.5 km/h 63 % 0 mm 0.0 W/m2 CLR
19:00 -13.4 °C -17.1 °C 34269.7 hPa NNE 71.5 km/h 71.5 km/h 63 % 0 mm 0.0 W/m2 CLR
19:03 -13.4 °C -17.1 °C 34269.7 hPa NNW 68.6 km/h 68.6 km/h 63 % 0 mm 0.0 W/m2 CLR
19:08 -13.4 °C -17.1 °C 34279.9 hPa North 62.6 km/h 62.6 km/h 63 % 0 mm 0.0 W/m2 CLR
19:09 -13.4 °C -17.1 °C 34279.9 hPa North 62.6 km/h 75.2 km/h 63 % 0 mm 0.0 W/m2 CLR
19:14 -13.8 °C -17.3 °C 34279.9 hPa North 53.6 km/h 53.6 km/h 64 % 0 mm 0.0 W/m2 CLR
19:19 -13.8 °C -17.2 °C 34279.9 hPa North 69.8 km/h 69.8 km/h 65 % 0 mm 0.0 W/m2 CLR
19:22 -13.8 °C -17.2 °C 34279.9 hPa NNE 74.5 km/h 74.5 km/h 65 % 0 mm 0.0 W/m2 CLR
19:27 -13.8 °C -17.1 °C 34279.9 hPa North 56.6 km/h 56.6 km/h 66 % 0 mm 0.0 W/m2 CLR
19:32 -13.8 °C -17.1 °C 34279.9 hPa NNW 47.6 km/h 47.6 km/h 66 % 0 mm 0.0 W/m2 CLR
19:33 -13.8 °C -17.1 °C 34293.4 hPa NNW 47.6 km/h 47.6 km/h 66 % 0 mm 0.0 W/m2 CLR
19:34 -13.8 °C -17.1 °C 34293.4 hPa North 67.3 km/h 67.3 km/h 66 % 0 mm 0.0 W/m2 CLR
19:39 -14.1 °C -17.3 °C 34293.4 hPa NNW 68.6 km/h 68.6 km/h 66 % 0 mm 0.0 W/m2 CLR
19:41 -14.1 °C -17.3 °C 34293.4 hPa North 62.6 km/h 62.6 km/h 66 % 0 mm 0.0 W/m2 CLR
19:44 -14.1 °C -17.3 °C 34293.4 hPa NNW 50.7 km/h 50.7 km/h 66 % 0 mm 0.0 W/m2 CLR
19:46 -14.1 °C -17.3 °C 34293.4 hPa NNW 50.7 km/h 50.7 km/h 66 % 0 mm 0.0 W/m2 CLR
19:48 -14.1 °C -17.3 °C 34293.4 hPa NNW 50.7 km/h 50.7 km/h 66 % 0 mm 0.0 W/m2 CLR
19:52 -14.1 °C -17.3 °C 34293.4 hPa North 47.6 km/h 47.6 km/h 67 % 0 mm 0.0 W/m2 CLR
19:57 -13.8 °C -16.9 °C 34303.6 hPa NNW 47.6 km/h 47.6 km/h 67 % 0 mm 0.0 W/m2 CLR
19:58 -13.8 °C -16.9 °C 34303.6 hPa NNW 47.6 km/h 47.6 km/h 67 % 0 mm 0.0 W/m2 CLR
20:03 -13.8 °C -16.9 °C 34303.6 hPa NNW 41.7 km/h 41.7 km/h 67 % 0 mm 0.0 W/m2 CLR
20:08 -13.8 °C -17.1 °C 34303.6 hPa NW 41.7 km/h 41.7 km/h 66 % 0 mm 0.0 W/m2 CLR
20:10 -13.8 °C -17.1 °C 34303.6 hPa NNW 44.7 km/h 44.7 km/h 66 % 0 mm 0.0 W/m2 CLR
20:15 -13.8 °C -17.1 °C 34303.6 hPa North 44.7 km/h 44.7 km/h 66 % 0 mm 0.0 W/m2 CLR
20:20 -13.8 °C -17.2 °C 34313.7 hPa NNW 50.7 km/h 50.7 km/h 65 % 0 mm 0.0 W/m2 CLR
20:21 -13.8 °C -17.2 °C 34303.6 hPa NW 47.6 km/h 47.6 km/h 65 % 0 mm 0.0 W/m2 CLR
20:22 -13.8 °C -17.2 °C 34313.7 hPa North 68.6 km/h 68.6 km/h 65 % 0 mm 0.0 W/m2 CLR
20:26 -13.8 °C -17.2 °C 34313.7 hPa NNW 50.7 km/h 50.7 km/h 65 % 0 mm 0.0 W/m2 CLR
20:29 -13.8 °C -17.2 °C 34313.7 hPa North 47.6 km/h 47.6 km/h 65 % 0 mm 0.0 W/m2 CLR
20:34 -13.8 °C -17.2 °C 34313.7 hPa NNW 59.5 km/h 59.5 km/h 65 % 0 mm 0.0 W/m2 CLR
20:35 -13.8 °C -17.2 °C 34313.7 hPa NNW 53.6 km/h 53.6 km/h 65 % 0 mm 0.0 W/m2 CLR
20:39 -13.8 °C -17.2 °C 34327.3 hPa NNW 47.6 km/h 47.6 km/h 65 % 0 mm 0.0 W/m2 CLR
20:42 -13.8 °C -17.1 °C 34327.3 hPa NNW 53.6 km/h 53.6 km/h 66 % 0 mm 0.0 W/m2 CLR
20:44 -13.8 °C -17.1 °C 34327.3 hPa North 53.6 km/h 53.6 km/h 66 % 0 mm 0.0 W/m2 CLR
20:49 -13.8 °C -17.1 °C 34327.3 hPa NW 35.7 km/h 35.7 km/h 66 % 0 mm 0.0 W/m2 CLR
20:50 -13.8 °C -17.1 °C 34327.3 hPa NNW 35.7 km/h 35.7 km/h 66 % 0 mm 0.0 W/m2 CLR
20:55 -14.1 °C -17.3 °C 34327.3 hPa NW 53.6 km/h 53.6 km/h 66 % 0 mm 0.0 W/m2 CLR
21:00 -13.8 °C -16.9 °C 34313.7 hPa NW 29.8 km/h 29.8 km/h 67 % 0 mm 0.0 W/m2 CLR
21:01 -13.8 °C -17.1 °C 34313.7 hPa NNW 38.8 km/h 38.8 km/h 66 % 0 mm 0.0 W/m2 CLR
21:04 -14.1 °C -17.3 °C 34313.7 hPa NW 47.6 km/h 47.6 km/h 67 % 0 mm 0.0 W/m2 CLR
21:06 -14.1 °C -17.3 °C 34313.7 hPa NW 38.8 km/h 38.8 km/h 67 % 0 mm 0.0 W/m2 CLR
21:11 -14.1 °C -17.3 °C 34313.7 hPa NW 44.7 km/h 44.7 km/h 67 % 0 mm 0.0 W/m2 CLR
21:12 -14.1 °C -17.3 °C 34313.7 hPa NW 35.7 km/h 35.7 km/h 67 % 0 mm 0.0 W/m2 CLR
21:13 -14.1 °C -17.3 °C 34313.7 hPa NNW 50.7 km/h 50.7 km/h 67 % 0 mm 0.0 W/m2 CLR
21:18 -14.1 °C -17.1 °C 34327.3 hPa NW 44.7 km/h 44.7 km/h 68 % 0 mm 0.0 W/m2 CLR
21:22 -14.1 °C -17.1 °C 34313.7 hPa NNW 62.6 km/h 62.6 km/h 68 % 0 mm 0.0 W/m2 CLR
21:26 -14.1 °C -17 °C 34313.7 hPa NW 44.7 km/h 44.7 km/h 69 % 0 mm 0.0 W/m2 CLR
21:27 -14.1 °C -17 °C 34313.7 hPa NW 47.6 km/h 47.6 km/h 69 % 0 mm 0.0 W/m2 CLR
21:32 -14.1 °C -17 °C 34313.7 hPa NW 38.8 km/h 38.8 km/h 69 % 0 mm 0.0 W/m2 CLR
21:37 -14.1 °C -17 °C 34313.7 hPa NW 44.7 km/h 44.7 km/h 69 % 0 mm 0.0 W/m2 CLR
21:38 -14.1 °C -17 °C 34313.7 hPa NW 44.7 km/h 44.7 km/h 69 % 0 mm 0.0 W/m2 CLR
21:43 -14.1 °C -17 °C 34313.7 hPa NW 47.6 km/h 47.6 km/h 69 % 0 mm 0.0 W/m2 CLR
21:45 -14.1 °C -17 °C 34313.7 hPa NNW 51.8 km/h 51.8 km/h 69 % 0 mm 0.0 W/m2 CLR
21:48 -14.1 °C -17 °C 34313.7 hPa NW 35.7 km/h 35.7 km/h 69 % 0 mm 0.0 W/m2 CLR
21:53 -14.1 °C -17 °C 34313.7 hPa NNW 35.7 km/h 35.7 km/h 69 % 0 mm 0.0 W/m2 CLR
21:54 -14.1 °C -17 °C 34313.7 hPa NW 56.6 km/h 56.6 km/h 69 % 0 mm 0.0 W/m2 CLR
21:59 -14.1 °C -17 °C 34327.3 hPa NNW 47.6 km/h 47.6 km/h 69 % 0 mm 0.0 W/m2 CLR
22:02 -14.1 °C -17 °C 34327.3 hPa NW 44.7 km/h 44.7 km/h 69 % 0 mm 0.0 W/m2 CLR
22:04 -14.1 °C -17 °C 34327.3 hPa North 50.7 km/h 50.7 km/h 69 % 0 mm 0.0 W/m2 CLR
22:09 -14.1 °C -17 °C 34313.7 hPa NNW 53.6 km/h 53.6 km/h 69 % 0 mm 0.0 W/m2 CLR
22:10 -14.1 °C -17 °C 34327.3 hPa North 46.7 km/h 46.7 km/h 69 % 0 mm 0.0 W/m2 CLR
22:15 -14.1 °C -17 °C 34327.3 hPa NW 44.7 km/h 44.7 km/h 69 % 0 mm 0.0 W/m2 CLR
22:16 -14.1 °C -17 °C 34327.3 hPa NNW 35.7 km/h 35.7 km/h 69 % 0 mm 0.0 W/m2 CLR
22:18 -14.1 °C -17 °C 34327.3 hPa NW 56.6 km/h 56.6 km/h 69 % 0 mm 0.0 W/m2 CLR
22:21 -14.1 °C -17 °C 34327.3 hPa NNW 47.6 km/h 47.6 km/h 69 % 0 mm 0.0 W/m2 CLR
22:26 -14.1 °C -17 °C 34327.3 hPa NW 44.7 km/h 44.7 km/h 69 % 0 mm 0.0 W/m2 CLR
22:30 -14.1 °C -17 °C 34327.3 hPa NNW 36.2 km/h 36.2 km/h 69 % 0 mm 0.0 W/m2 CLR
22:32 -14.1 °C -17 °C 34327.3 hPa NW 38.8 km/h 38.8 km/h 69 % 0 mm 0.0 W/m2 CLR
22:37 -14.1 °C -17 °C 34327.3 hPa NW 38.8 km/h 38.8 km/h 69 % 0 mm 0.0 W/m2 CLR
22:38 -14.1 °C -17 °C 34313.7 hPa North 38.8 km/h 38.8 km/h 69 % 0 mm 0.0 W/m2 CLR
22:43 -14.1 °C -17 °C 34313.7 hPa NNW 32.8 km/h 32.8 km/h 69 % 0 mm 0.0 W/m2 CLR
22:44 -14.1 °C -17 °C 34313.7 hPa NW 29.8 km/h 29.8 km/h 69 % 0 mm 0.0 W/m2 CLR
22:49 -14.1 °C -17 °C 34313.7 hPa NW 41.7 km/h 41.7 km/h 69 % 0 mm 0.0 W/m2 CLR
22:51 -14.1 °C -17 °C 34313.7 hPa NW 36.2 km/h 36.2 km/h 69 % 0 mm 0.0 W/m2 CLR
22:54 -14.1 °C -17 °C 34327.3 hPa NW 41.4 km/h 41.4 km/h 69 % 0 mm 0.0 W/m2 CLR
22:57 -14.1 °C -17.1 °C 34327.3 hPa NW 50.7 km/h 50.7 km/h 68 % 0 mm 0.0 W/m2 CLR
23:01 -14.1 °C -17.1 °C 34327.3 hPa NNW 50.7 km/h 50.7 km/h 68 % 0 mm 0.0 W/m2 CLR
23:07 -14.1 °C -17.1 °C 34327.3 hPa North 41.7 km/h 41.7 km/h 68 % 0 mm 0.0 W/m2 CLR
23:11 -14.1 °C -17.1 °C 34327.3 hPa NW 32.8 km/h 32.8 km/h 68 % 0 mm 0.0 W/m2 CLR
23:12 -14.1 °C -17.1 °C 34327.3 hPa NNW 32.8 km/h 32.8 km/h 68 % 0 mm 0.0 W/m2 CLR
23:17 -14.1 °C -17.1 °C 34327.3 hPa NW 38.8 km/h 38.8 km/h 68 % 0 mm 0.0 W/m2 CLR
23:19 -14.1 °C -17.1 °C 34327.3 hPa NNW 33.6 km/h 33.6 km/h 68 % 0 mm 0.0 W/m2 CLR
23:24 -14.1 °C -17.1 °C 34327.3 hPa NW 26.9 km/h 26.9 km/h 68 % 0 mm 0.0 W/m2 CLR
23:26 -14.1 °C -17.1 °C 34327.3 hPa NW 26.9 km/h 26.9 km/h 68 % 0 mm 0.0 W/m2 CLR
23:30 -14.1 °C -17.1 °C 34327.3 hPa NW 29.8 km/h 29.8 km/h 68 % 0 mm 0.0 W/m2 CLR
23:35 -14.1 °C -17.1 °C 34327.3 hPa NW 38.8 km/h 38.8 km/h 68 % 0 mm 0.0 W/m2 CLR
23:36 -14.1 °C -17.1 °C 34327.3 hPa NW 38.8 km/h 38.8 km/h 68 % 0 mm 0.0 W/m2 CLR
23:41 -14.1 °C -17.1 °C 34327.3 hPa NW 29.8 km/h 29.8 km/h 68 % 0 mm 0.0 W/m2 CLR
23:43 -14.1 °C -17.1 °C 34327.3 hPa NW 29.8 km/h 29.8 km/h 68 % 0 mm 0.0 W/m2 CLR
23:47 -14.1 °C -17.1 °C 34327.3 hPa NW 35.7 km/h 35.7 km/h 68 % 0 mm 0.0 W/m2 CLR
23:50 -14.1 °C -17.1 °C 34327.3 hPa NNW 44.7 km/h 44.7 km/h 68 % 0 mm 0.0 W/m2 CLR
23:52 -14.1 °C -17.1 °C 34327.3 hPa NNW 38.8 km/h 38.8 km/h 68 % 0 mm 0.0 W/m2 CLR
23:57 -14.1 °C -17.1 °C 34313.7 hPa NNW 44.7 km/h 44.7 km/h 68 % 0 mm 0.0 W/m2 CLR
Lo Temps de Massalio
Compliments of Weather Underground - 1.75 mb